Flag for Brazil Weather past 2 weeks in Rio Branco, Acre, Brazil

Now
84 °F

Scattered clouds.


Feels Like: 91 °F
Forecast: 72 / 87 °F
Wind: 5 mph from North

Location: Rio Branco Airport


UV Index: 7 (High)

Visibility: N/A


Pressure: 29.95 "Hg

Humidity: 70%

Dew point: 73 °F

Location of Rio BrancoLocation

Historic Weather in Rio Branco

°F

Rio Branco temperature yesterday

Maximum temperature yesterday: 90 °F (at 1:00 PM)
Minimum temperature yesterday: 72 °F (at 1:00 AM)
Average temperature yesterday: 78 °F

Past Weeks' High & Low Weather Summary

 TemperatureHumidityPressure
High93 °F (Apr 6, 2:00 PM)100% (Apr 4, 9:00 AM)30.01 "Hg (Apr 4, 9:00 AM)
Low66 °F (Apr 15, 5:00 AM)47% (Apr 6, 2:00 PM)29.74 "Hg (Apr 12, 3:00 PM)
Average77 °F82%29.89 "Hg
* Reported Apr 4 9:00 AM — Apr 19 9:00 AM, Rio Branco, Weather by CustomWeather, © 2014

Note: Actual official high and low records may vary slightly from our data, if they occured in-between our weather recording intervals... More about our weather records

Advertising

Historic Weather Conditions — Data for Previous 24 hours

 ConditionsComfort  
Time TempWeatherWind HumidityBarometerVisibility
9:00 AM
Apr 19
84 °FScattered clouds.5 mph70%29.95 "HgN/A
8:00 AM81 °FPassing clouds.7 mph74%29.95 "HgN/A
7:00 AM77 °FScattered clouds.6 mph83%29.92 "HgN/A
6:00 AM73 °FFog.2 mph94%29.89 "Hg1 mi
5:00 AM72 °FFog.2 mph100%29.89 "Hg1 mi
4:00 AM72 °FPartly cloudy.2 mph100%29.86 "HgN/A
3:00 AM73 °FClear.2 mph94%29.86 "Hg10 mi
2:00 AM72 °FPassing clouds.3 mph100%29.83 "HgN/A
1:00 AM72 °FPassing clouds.2 mph94%29.83 "HgN/A
12:00 AM73 °FClear.No wind94%29.86 "Hg10 mi
11:00 PM
Apr 18
73 °FClear.1 mph94%29.86 "Hg10 mi
10:00 PM73 °FClear.No wind94%29.83 "Hg10 mi
9:00 PM75 °FClear.1 mph89%29.83 "Hg10 mi
8:00 PM75 °FClear.2 mph89%29.80 "Hg10 mi
7:00 PM79 °FClear.2 mph79%29.77 "Hg10 mi
6:00 PM81 °FSunny.3 mph74%29.77 "Hg10 mi
5:00 PM86 °FScattered clouds.2 mph59%29.74 "HgN/A
4:00 PM88 °FScattered clouds.3 mph52%29.74 "HgN/A
3:00 PM88 °FScattered showers. Scattered clouds.5 mph52%N/AN/A
2:00 PM90 °FScattered clouds.9 mph52%29.80 "HgN/A
1:00 PM90 °FPartly sunny.8 mph52%29.83 "HgN/A
12:00 PM88 °FPartly sunny.6 mph55%29.89 "HgN/A
11:00 AM86 °FScattered clouds.6 mph62%29.92 "HgN/A
10:00 AM82 °FScattered clouds.8 mph70%29.95 "HgN/A
Weather by CustomWeather, © 2014

See weather overview